Weather History for Burley, ID

Change the Weather History Date:

Tuesday, December 31, 2013

  Actual Average Record
Temperature  
Mean Temperature 34 °F 26 °F  
Max Temperature 45 °F 34 °F 53 °F (1996)
Min Temperature 22 °F 18 °F -12 °F (1978)
Degree Days  
Heating Degree Days 31 39  
Month to date heating degree days 1271 1187  
Since 1 July heating degree days 2839 2880  
Cooling Degree Days 0 0  
Month to date cooling degree days 0 0  
Year to date cooling degree days 642 365  
Moisture  
Dew Point 24 °F    
Average Humidity 64    
Maximum Humidity 88    
Minimum Humidity 40    
Precipitation  
Precipitation T in 0.04 in 0.30 in (2005)
Month to date precipitation 0.17 1.13  
Year to date precipitation 4.69 10.14  
Sea Level Pressure  
Sea Level Pressure 30.23 in    
Wind  
Wind Speed 8 mph (WSW)    
Max Wind Speed 23 mph    
Max Gust Speed 29 mph    
Visibility 10 miles    
Events      
T = Trace of Precipitation, MM = Missing Value Source: NWS Daily Summary

Daily Weather History Graph

Daily Weather History Graph

Search for Another Location

Airport:

Trip Planner

Search our weather history database for the weather conditions in past years. The results will help you decide how hot, cold, wet, or windy it might be!

Date:

Astronomy

Dec. 31, 2013 Rise Set
Actual Time 8:04 AM MST 5:11 PM MST
Civil Twilight 7:32 AM MST 5:43 PM MST
Nautical Twilight 6:57 AM MST 6:19 PM MST
Astronomical Twilight 6:23 AM MST 6:53 PM MST
Moon 7:00 AM MST (12/31) 4:53 PM MST (12/31)
Length of Visible Light 10h 10m
Length of Day
9h 07m
Waning Crescent, 1% of the Moon is Illuminated
Dec 31
Waning Crescent
Jan 1
New
Jan 7
First Quarter
Jan 15
Full
Jan 23
Last Quarter

Hourly Weather History & Observations

Time (MST) Temp. Windchill Dew Point Humidity Pressure Visibility Wind Dir Wind Speed Gust Speed Precip Events Conditions
12:53 AM 28.9 °F 23.9 °F 21.0 °F 72% 30.26 in 10.0 mi SW 4.6 mph - N/A   Overcast
1:53 AM 30.9 °F 23.5 °F 21.0 °F 67% 30.24 in 10.0 mi WSW 8.1 mph - N/A   Overcast
2:53 AM 28.9 °F 23.9 °F 21.0 °F 72% 30.26 in 10.0 mi North 4.6 mph - N/A   Mostly Cloudy
3:53 AM 30.0 °F 26.5 °F 23.0 °F 75% 30.25 in 10.0 mi North 3.5 mph - N/A   Overcast
4:53 AM 27.0 °F - 21.0 °F 78% 30.27 in 10.0 mi Calm Calm - N/A   Partly Cloudy
5:53 AM 23.0 °F - 19.9 °F 88% 30.27 in 9.0 mi Calm Calm - N/A   Partly Cloudy
6:53 AM 25.0 °F - 21.0 °F 85% 30.28 in 9.0 mi Calm Calm - N/A   Overcast
7:53 AM 25.0 °F 19.3 °F 21.0 °F 85% 30.27 in 8.0 mi SSW 4.6 mph - N/A   Overcast
8:53 AM 25.0 °F 19.3 °F 21.0 °F 85% 30.29 in 7.0 mi North 4.6 mph - N/A   Overcast
9:53 AM 28.0 °F - 23.0 °F 81% 30.30 in 10.0 mi Calm Calm - N/A   Overcast
10:53 AM 32.0 °F - 24.1 °F 73% 30.29 in 10.0 mi Calm Calm - N/A   Overcast
11:53 AM 37.9 °F 32.7 °F 24.1 °F 57% 30.25 in 10.0 mi SW 6.9 mph - N/A   Overcast
12:53 PM 41.0 °F 37.1 °F 24.1 °F 51% 30.23 in 10.0 mi SW 5.8 mph - N/A   Overcast
1:53 PM 44.1 °F 39.0 °F 21.9 °F 42% 30.18 in 10.0 mi West 9.2 mph - N/A   Overcast
2:53 PM 44.1 °F 39.5 °F 25.0 °F 47% 30.17 in 10.0 mi West 8.1 mph - N/A   Overcast
3:53 PM 44.1 °F 38.1 °F 27.0 °F 51% 30.16 in 10.0 mi WSW 11.5 mph - N/A   Overcast
4:53 PM 42.1 °F 36.1 °F 27.0 °F 55% 30.18 in 10.0 mi WSW 10.4 mph - N/A   Overcast
5:53 PM 41.0 °F 34.3 °F 26.1 °F 55% 30.19 in 10.0 mi SW 11.5 mph - N/A   Overcast
6:53 PM 39.0 °F 32.3 °F 27.0 °F 62% 30.20 in 10.0 mi West 10.4 mph - N/A   Overcast
7:53 PM 39.0 °F 31.8 °F 27.0 °F 62% 30.20 in 10.0 mi West 11.5 mph - 0.00 in   Overcast
8:53 PM 37.9 °F 30.0 °F 26.1 °F 62% 30.22 in 10.0 mi WSW 12.7 mph - N/A   Overcast
9:53 PM 37.9 °F 29.2 °F 26.1 °F 62% 30.22 in 10.0 mi WSW 15.0 mph - N/A   Overcast
10:53 PM 36.0 °F 25.6 °F 27.0 °F 70% 30.22 in 10.0 mi WSW 18.4 mph - N/A   Partly Cloudy
11:53 PM 36.0 °F 24.7 °F 26.1 °F 67% 30.22 in 10.0 mi WSW 21.9 mph 28.8 mph N/A   Clear